This is the latest recevied weather packets stored in our database for station/object DM3DP. If no packets are shown the sender has not sent any weather packets the latest 1 day(s).
| Time | Temp. | Humidity | Pressure | Rain* | Wind** | Luminosity | Snow |
|---|---|---|---|---|---|---|---|
| 1778003512 | 13.89° C | 99% | 1005.1 hPa | 1.02 mm | 0.89 m/s, 324° | 5 W/m² | - |
| 1778003181 | 13.89° C | 99% | 1005.1 hPa | 1.02 mm | 0.89 m/s, 305° | 5 W/m² | - |
| 1778002851 | 14.44° C | 99% | 1005.1 hPa | 0.76 mm | 1.34 m/s, 147° | 6 W/m² | - |
| 1778002521 | 14.44° C | 99% | 1005.1 hPa | 0.76 mm | 0.89 m/s, 290° | 8 W/m² | - |
| 1778002191 | 14.44° C | 99% | 1005 hPa | 0.51 mm | 1.79 m/s, 290° | 11 W/m² | - |
| 1778001862 | 14.44° C | 99% | 1005 hPa | 0.51 mm | 1.79 m/s, 321° | 12 W/m² | - |
| 1778001532 | 15° C | 99% | 1005 hPa | 0.25 mm | 1.34 m/s, 288° | 13 W/m² | - |
| 1778001201 | 15° C | 99% | 1005 hPa | 0.25 mm | 3.13 m/s, 284° | 11 W/m² | - |
| 1778000871 | 15° C | 99% | 1005 hPa | 0.25 mm | 1.79 m/s, 319° | 11 W/m² | - |
| 1778000541 | 15° C | 99% | 1005 hPa | 0 mm | 1.34 m/s, 157° | 13 W/m² | - |
| 1778000211 | 15.56° C | 99% | 1005 hPa | 0 mm | 1.34 m/s, 119° | 16 W/m² | - |
| 1777999881 | 15.56° C | 99% | 1005 hPa | 0 mm | 1.34 m/s, 182° | 21 W/m² | - |
| 1777999551 | 15.56° C | 99% | 1005 hPa | 0 mm | 1.79 m/s, 326° | 24 W/m² | - |
| 1777999222 | 15.56° C | 99% | 1005.1 hPa | 0 mm | 3.58 m/s, 287° | 26 W/m² | - |
| 1777998891 | 15.56° C | 99% | 1005.1 hPa | 0 mm | 2.68 m/s, 315° | 24 W/m² | - |
| 1777998561 | 15.56° C | 99% | 1005.1 hPa | 0 mm | 0.89 m/s, 331° | 28 W/m² | - |
| 1777998231 | 15.56° C | 99% | 1005.1 hPa | 0 mm | 4.02 m/s, 331° | 27 W/m² | - |
| 1777997902 | 16.11° C | 99% | 1005.1 hPa | 0 mm | 1.79 m/s, 189° | 27 W/m² | - |
| 1777997571 | 16.11° C | 99% | 1005.1 hPa | 0 mm | 1.79 m/s, 202° | 27 W/m² | - |
| 1777997242 | 16.11° C | 99% | 1005.1 hPa | 0 mm | 3.58 m/s, 205° | 33 W/m² | - |
| 1777996912 | 16.11° C | 99% | 1005.1 hPa | 0 mm | 2.68 m/s, 201° | 38 W/m² | - |
| 1777996582 | 16.11° C | 99% | 1005.1 hPa | 0 mm | 1.79 m/s, 252° | 40 W/m² | - |
| 1777996251 | 16.67° C | 99% | 1005.1 hPa | 0 mm | 1.34 m/s, 133° | 35 W/m² | - |
| 1777995921 | 16.67° C | 99% | 1005.1 hPa | 0 mm | 1.34 m/s, 184° | 61 W/m² | - |
| 1777995591 | 16.67° C | 99% | 1005.1 hPa | 0 mm | 2.24 m/s, 350° | 52 W/m² | - |
* Rain latest hour (hover to see other rain measurements)
** Current wind speed in m/s (hover to see current wind gust speed)